�������l�o���
Date,Time,MP-1(��Sv/h),MP-2(��Sv/h),MP-3(��Sv/h),MP-4(��Sv/h),MP-5(��Sv/h),MP-6(��Sv/h),MP-7(��Sv/h),MP-8(��Sv/h),����,����(m/s),���J
2022/08/15,00:00,0.595,0.821,0.537,0.989,0.719,0.344,0.585,0.551,�k,3.9,�L
2022/08/15,00:10,0.598,0.823,0.542,0.990,0.718,0.344,0.582,0.549,�k,2.0,�L
2022/08/15,00:20,0.599,0.828,0.541,0.987,0.718,0.345,0.581,0.548,�k�k��,2.0,�L
2022/08/15,00:30,0.599,0.827,0.538,0.988,0.718,0.344,0.580,0.549,�k�k��,1.2,�L
2022/08/15,00:40,0.596,0.824,0.535,0.982,0.709,0.342,0.578,0.545,�k�k��,1.4,�L
2022/08/15,00:50,0.595,0.819,0.533,0.978,0.707,0.343,0.577,0.545,�k��,1.7,�L
2022/08/15,01:00,0.591,0.819,0.531,0.979,0.710,0.343,0.577,0.546,���쐼,2.0,�L
2022/08/15,01:10,0.593,0.816,0.531,0.977,0.706,0.342,0.577,0.545,��,3.0,�L
2022/08/15,01:20,0.588,0.816,0.528,0.976,0.707,0.343,0.577,0.545,���쐼,2.5,�L
2022/08/15,01:30,0.587,0.816,0.525,0.976,0.708,0.343,0.578,0.546,��쐼,2.8,��
2022/08/15,01:40,0.589,0.816,0.526,0.975,0.707,0.342,0.577,0.546,��쐼,3.7,��
2022/08/15,01:50,0.584,0.814,0.524,0.977,0.706,0.341,0.576,0.546,��,3.7,��
2022/08/15,02:00,0.584,0.813,0.524,0.977,0.707,0.339,0.576,0.545,��,3.1,��
2022/08/15,02:10,0.585,0.812,0.523,0.973,0.706,0.337,0.578,0.546,�쐼,3.7,��
2022/08/15,02:20,0.580,0.814,0.521,0.973,0.705,0.338,0.578,0.544,�쐼,4.0,��
2022/08/15,02:30,0.581,0.812,0.520,0.976,0.706,0.337,0.577,0.545,�쐼,1.5,��
2022/08/15,02:40,0.580,0.813,0.517,0.973,0.706,0.336,0.578,0.544,���쐼,1.7,��
2022/08/15,02:50,0.581,0.813,0.519,0.976,0.705,0.337,0.577,0.547,�k��,1.9,��
2022/08/15,03:00,0.578,0.812,0.518,0.975,0.704,0.336,0.578,0.545,�k�k��,1.7,��
2022/08/15,03:10,0.579,0.813,0.519,0.977,0.707,0.338,0.577,0.547,�k�k��,3.9,��
2022/08/15,03:20,0.580,0.814,0.518,0.976,0.705,0.336,0.577,0.546,�k��,3.9,��
2022/08/15,03:30,0.580,0.813,0.519,0.977,0.706,0.334,0.578,0.547,�k�k��,4.8,��
2022/08/15,03:40,0.579,0.813,0.518,0.978,0.705,0.336,0.579,0.547,�k,2.5,��
2022/08/15,03:50,0.579,0.813,0.519,0.980,0.703,0.336,0.579,0.546,�k��,3.9,��
2022/08/15,04:00,0.579,0.817,0.519,0.975,0.706,0.335,0.579,0.547,�k��,4.5,��
2022/08/15,04:10,0.580,0.813,0.518,0.977,0.705,0.335,0.578,0.547,�k�k��,5.0,��
2022/08/15,04:20,0.578,0.814,0.518,0.977,0.705,0.335,0.578,0.546,�k�k��,4.7,��
2022/08/15,04:30,0.580,0.815,0.518,0.978,0.706,0.336,0.579,0.547,�k�k��,2.6,��
2022/08/15,04:40,0.578,0.816,0.518,0.977,0.708,0.336,0.580,0.547,�k��,2.8,��
2022/08/15,04:50,0.578,0.813,0.519,0.979,0.708,0.336,0.580,0.548,-,CALM,��
2022/08/15,05:00,0.578,0.815,0.520,0.982,0.708,0.336,0.579,0.547,�k��,2.3,��
2022/08/15,05:10,0.578,0.814,0.520,0.980,0.707,0.337,0.578,0.548,�k,3.4,��
2022/08/15,05:20,0.578,0.813,0.518,0.980,0.707,0.336,0.580,0.548,�k�k��,3.5,��
2022/08/15,05:30,0.578,0.814,0.518,0.980,0.706,0.336,0.581,0.548,�k�k��,3.7,��
2022/08/15,05:40,0.576,0.817,0.518,0.981,0.707,0.336,0.581,0.546,�k,2.6,��
2022/08/15,05:50,0.577,0.814,0.519,0.979,0.709,0.335,0.580,0.548,�k,3.5,��
2022/08/15,06:00,0.579,0.815,0.519,0.981,0.707,0.335,0.579,0.547,�k�k��,3.1,��
2022/08/15,06:10,0.577,0.816,0.519,0.981,0.706,0.335,0.581,0.547,�k�k��,2.0,��
2022/08/15,06:20,0.579,0.815,0.519,0.981,0.708,0.336,0.579,0.548,�k��,2.9,��
2022/08/15,06:30,0.579,0.816,0.519,0.980,0.708,0.336,0.579,0.549,�k�k��,2.6,��
2022/08/15,06:40,0.577,0.817,0.519,0.981,0.707,0.335,0.580,0.547,�k�k��,1.7,��
2022/08/15,06:50,0.577,0.814,0.519,0.979,0.707,0.336,0.581,0.549,�k�k��,4.8,��
2022/08/15,07:00,0.579,0.814,0.518,0.982,0.706,0.335,0.581,0.547,�k�k��,4.5,��
2022/08/15,07:10,0.578,0.812,0.517,0.981,0.706,0.333,0.579,0.547,�k,4.2,��
2022/08/15,07:20,0.578,0.812,0.515,0.981,0.706,0.333,0.580,0.545,�k�k��,3.2,��
2022/08/15,07:30,0.578,0.813,0.516,0.982,0.706,0.334,0.580,0.547,�k�k��,2.5,��
2022/08/15,07:40,0.576,0.813,0.518,0.981,0.708,0.336,0.580,0.546,�k��,0.9,��
2022/08/15,07:50,0.574,0.811,0.517,0.981,0.709,0.334,0.580,0.545,���k��,0.9,��
2022/08/15,08:00,0.577,0.813,0.519,0.981,0.708,0.334,0.581,0.547,�k��,1.5,��
2022/08/15,08:10,0.575,0.813,0.519,0.982,0.707,0.334,0.579,0.545,��,1.4,��
2022/08/15,08:20,0.577,0.814,0.518,0.981,0.709,0.333,0.578,0.545,���쓌,1.9,��
2022/08/15,08:30,0.578,0.816,0.517,0.979,0.708,0.333,0.580,0.547,�쓌,1.9,��
2022/08/15,08:40,0.577,0.815,0.518,0.981,0.708,0.336,0.579,0.546,�쓌,1.4,��
2022/08/15,08:50,0.577,0.817,0.517,0.981,0.706,0.334,0.581,0.545,�쓌,2.0,��
2022/08/15,09:00,0.578,0.815,0.517,0.982,0.708,0.334,0.580,0.545,��쓌,2.0,��
2022/08/15,09:10,0.576,0.817,0.518,0.980,0.709,0.334,0.580,0.547,��쓌,2.6,��
2022/08/15,09:20,0.578,0.816,0.519,0.983,0.708,0.334,0.580,0.547,��쓌,2.9,��
2022/08/15,09:30,0.580,0.816,0.519,0.983,0.708,0.335,0.583,0.546,��쓌,1.7,��
2022/08/15,09:40,0.579,0.819,0.519,0.982,0.707,0.334,0.581,0.547,�쓌,2.6,��
2022/08/15,09:50,0.581,0.817,0.519,0.981,0.709,0.334,0.582,0.546,��쓌,2.9,��
2022/08/15,10:00,0.578,0.817,0.519,0.982,0.709,0.334,0.580,0.546,��쓌,2.0,��
2022/08/15,10:10,0.581,0.819,0.516,0.978,0.710,0.334,0.582,0.546,��쓌,2.6,��
2022/08/15,10:20,0.580,0.818,0.518,0.981,0.710,0.335,0.581,0.547,��쓌,2.0,��
2022/08/15,10:30,0.581,0.818,0.519,0.981,0.709,0.335,0.582,0.547,��쓌,1.4,��
2022/08/15,10:40,0.580,0.816,0.519,0.983,0.710,0.335,0.582,0.546,���쓌,1.4,��
2022/08/15,10:50,0.581,0.820,0.519,0.982,0.709,0.335,0.582,0.547,�k��,0.6,��
2022/08/15,11:00,0.582,0.819,0.521,0.982,0.710,0.336,0.580,0.547,�쓌,1.2,��
2022/08/15,11:10,0.582,0.817,0.520,0.983,0.711,0.335,0.582,0.547,��,1.7,��
2022/08/15,11:20,0.582,0.819,0.521,0.983,0.711,0.337,0.582,0.547,��,2.0,��
2022/08/15,11:30,0.581,0.818,0.521,0.982,0.712,0.336,0.581,0.548,��,1.5,��
2022/08/15,11:40,0.581,0.819,0.519,0.984,0.712,0.336,0.584,0.546,��쓌,1.7,��
2022/08/15,11:50,0.582,0.821,0.521,0.983,0.710,0.336,0.583,0.548,��쓌,2.2,��
2022/08/15,12:00,0.582,0.822,0.523,0.985,0.712,0.336,0.582,0.547,��쓌,3.2,��
2022/08/15,12:10,0.581,0.820,0.520,0.983,0.711,0.336,0.583,0.548,��쓌,3.1,��
2022/08/15,12:20,0.580,0.821,0.522,0.984,0.714,0.336,0.583,0.548,��쓌,4.1,��
2022/08/15,12:30,0.581,0.823,0.523,0.984,0.714,0.336,0.582,0.547,��쓌,4.2,��
2022/08/15,12:40,0.581,0.822,0.524,0.985,0.714,0.335,0.583,0.547,��,4.7,��
2022/08/15,12:50,0.582,0.822,0.523,0.985,0.713,0.337,0.583,0.548,��,5.2,��
2022/08/15,13:00,0.579,0.822,0.524,0.987,0.713,0.336,0.581,0.547,��,6.1,��
2022/08/15,13:10,0.583,0.823,0.524,0.986,0.714,0.335,0.583,0.548,��,5.0,��
2022/08/15,13:20,0.583,0.823,0.523,0.985,0.714,0.336,0.584,0.548,��,4.8,��
2022/08/15,13:30,0.582,0.823,0.523,0.985,0.714,0.336,0.582,0.548,��,5.5,��
2022/08/15,13:40,0.582,0.819,0.524,0.985,0.715,0.336,0.583,0.546,��쓌,5.1,��
2022/08/15,13:50,0.580,0.825,0.524,0.987,0.715,0.336,0.582,0.549,��,5.2,��
2022/08/15,14:00,0.583,0.820,0.524,0.985,0.716,0.334,0.583,0.547,��,6.1,��
2022/08/15,14:10,0.584,0.824,0.525,0.985,0.716,0.335,0.584,0.549,��,6.3,��
2022/08/15,14:20,0.583,0.824,0.525,0.986,0.715,0.336,0.582,0.549,��,6.6,��
2022/08/15,14:30,0.584,0.824,0.524,0.988,0.716,0.337,0.582,0.547,��,6.2,��
2022/08/15,14:40,0.582,0.824,0.526,0.989,0.716,0.337,0.583,0.548,��,6.3,��
2022/08/15,14:50,0.581,0.823,0.525,0.990,0.716,0.337,0.583,0.548,��,5.9,�L
2022/08/15,15:00,0.582,0.823,0.526,0.987,0.716,0.335,0.583,0.548,��,5.0,�L
2022/08/15,15:10,0.584,0.823,0.525,0.986,0.714,0.336,0.583,0.549,��,5.3,�L
2022/08/15,15:20,0.584,0.825,0.527,0.988,0.717,0.337,0.584,0.550,��,4.3,�L
2022/08/15,15:30,0.585,0.824,0.526,0.985,0.717,0.336,0.584,0.548,��,3.8,��
2022/08/15,15:40,0.585,0.823,0.525,0.990,0.719,0.336,0.584,0.550,��,4.3,��
2022/08/15,15:50,0.584,0.825,0.526,0.985,0.718,0.336,0.584,0.550,��,4.5,��
2022/08/15,16:00,0.585,0.825,0.525,0.987,0.717,0.337,0.585,0.549,��,4.1,��
2022/08/15,16:10,0.585,0.824,0.523,0.989,0.718,0.336,0.584,0.550,��,4.5,��
2022/08/15,16:20,0.585,0.826,0.525,0.988,0.717,0.337,0.585,0.549,��,5.3,�L
2022/08/15,16:30,0.586,0.827,0.525,0.988,0.717,0.336,0.584,0.551,��,4.9,�L
2022/08/15,16:40,0.587,0.826,0.527,0.988,0.716,0.337,0.585,0.550,��쓌,5.8,�L
2022/08/15,16:50,0.584,0.825,0.526,0.989,0.718,0.336,0.584,0.549,��,6.2,�L
2022/08/15,17:00,0.587,0.826,0.526,0.988,0.718,0.338,0.585,0.553,��,6.1,�L
2022/08/15,17:10,0.585,0.826,0.527,0.991,0.719,0.339,0.585,0.552,��,7.5,�L
2022/08/15,17:20,0.587,0.827,0.529,0.991,0.719,0.339,0.585,0.550,��,5.7,��
2022/08/15,17:30,0.587,0.826,0.527,0.990,0.717,0.340,0.586,0.550,��,4.5,�L
2022/08/15,17:40,0.586,0.824,0.526,0.990,0.721,0.340,0.585,0.551,��,5.1,��
2022/08/15,17:50,0.585,0.826,0.527,0.990,0.718,0.339,0.585,0.551,��,4.7,��
2022/08/15,18:00,0.585,0.826,0.526,0.987,0.719,0.338,0.584,0.550,��,4.2,��
2022/08/15,18:10,0.587,0.826,0.526,0.989,0.716,0.337,0.584,0.551,��,5.2,��
2022/08/15,18:20,0.586,0.826,0.528,0.991,0.719,0.339,0.585,0.552,��,5.5,��
2022/08/15,18:30,0.585,0.826,0.526,0.989,0.718,0.337,0.583,0.551,��,6.8,��
2022/08/15,18:40,0.586,0.826,0.526,0.989,0.717,0.338,0.585,0.550,��,6.9,��
2022/08/15,18:50,0.584,0.825,0.526,0.989,0.718,0.337,0.585,0.551,��쐼,4.2,��
2022/08/15,19:00,0.583,0.826,0.526,0.990,0.719,0.339,0.585,0.551,��,3.5,��
2022/08/15,19:10,0.584,0.825,0.525,0.990,0.718,0.339,0.586,0.552,��쐼,3.7,��
2022/08/15,19:20,0.586,0.826,0.527,0.990,0.717,0.338,0.585,0.552,��,6.1,��
2022/08/15,19:30,0.584,0.825,0.524,0.989,0.718,0.337,0.586,0.551,��,7.5,��
2022/08/15,19:40,0.585,0.825,0.528,0.988,0.720,0.338,0.585,0.549,��,7.6,��
2022/08/15,19:50,0.586,0.827,0.528,0.990,0.717,0.338,0.586,0.550,��,8.1,��
2022/08/15,20:00,0.586,0.827,0.527,0.990,0.718,0.338,0.587,0.551,��,9.0,��
2022/08/15,20:10,0.587,0.826,0.526,0.990,0.720,0.340,0.586,0.551,��,9.5,��
2022/08/15,20:20,0.586,0.828,0.526,0.991,0.717,0.338,0.586,0.550,��,8.0,��
2022/08/15,20:30,0.586,0.828,0.525,0.991,0.720,0.338,0.587,0.551,��,7.7,��
2022/08/15,20:40,0.585,0.828,0.526,0.990,0.718,0.337,0.585,0.549,��,7.3,��
2022/08/15,20:50,0.586,0.826,0.526,0.989,0.717,0.338,0.586,0.551,��,7.7,��
2022/08/15,21:00,0.588,0.826,0.527,0.990,0.718,0.339,0.585,0.553,��,8.1,��
2022/08/15,21:10,0.585,0.827,0.527,0.988,0.720,0.339,0.586,0.552,��,7.9,��
2022/08/15,21:20,0.585,0.827,0.527,0.990,0.718,0.338,0.588,0.551,��,6.7,��
2022/08/15,21:30,0.586,0.828,0.526,0.989,0.719,0.338,0.587,0.551,��,7.1,��
2022/08/15,21:40,0.586,0.827,0.526,0.990,0.719,0.338,0.585,0.551,��,6.7,��
2022/08/15,21:50,0.585,0.828,0.526,0.990,0.718,0.338,0.586,0.552,��,6.9,��
2022/08/15,22:00,0.586,0.827,0.528,0.987,0.718,0.339,0.588,0.551,��,7.3,��
2022/08/15,22:10,0.585,0.828,0.526,0.989,0.719,0.339,0.586,0.552,��,6.5,��
2022/08/15,22:20,0.588,0.827,0.526,0.990,0.720,0.340,0.588,0.553,��,6.1,��
2022/08/15,22:30,0.588,0.827,0.527,0.990,0.719,0.336,0.588,0.552,��,7.1,��
2022/08/15,22:40,0.588,0.826,0.528,0.991,0.718,0.338,0.588,0.554,��,6.2,��
2022/08/15,22:50,0.585,0.830,0.526,0.992,0.717,0.339,0.587,0.552,��,3.9,��
2022/08/15,23:00,0.584,0.828,0.528,0.991,0.718,0.339,0.588,0.552,��,5.1,��
2022/08/15,23:10,0.587,0.828,0.528,0.992,0.720,0.339,0.588,0.551,��,5.7,��
2022/08/15,23:20,0.586,0.828,0.527,0.992,0.719,0.338,0.588,0.551,��,6.1,��
2022/08/15,23:30,0.587,0.827,0.527,0.991,0.719,0.339,0.587,0.553,��,6.6,��
2022/08/15,23:40,0.585,0.829,0.527,0.993,0.719,0.340,0.587,0.552,��,6.1,��
2022/08/15,23:50,0.587,0.830,0.527,0.992,0.719,0.339,0.586,0.552,��,5.0,��
